Weather History for Hillsdale, MI

Change the Weather History Date:

Wednesday, January 23, 2013

  Actual Average Record
Temperature  
Mean Temperature 8 °F -  
Max Temperature 16 °F 32 °F 59 °F (1967)
Min Temperature 0 °F 16 °F -10 °F (1963)
Degree Days  
Heating Degree Days 57    
Moisture  
Dew Point 4 °F    
Average Humidity 75    
Maximum Humidity 88    
Minimum Humidity 59    
Precipitation  
Precipitation 0.00 in - - ()
Sea Level Pressure  
Sea Level Pressure 30.12 in    
Wind  
Wind Speed 5 mph (SW)    
Max Wind Speed 16 mph    
Max Gust Speed 21 mph    
Visibility 6 miles    
Events Snow    
Averages and records for this station are not official NWS values.
T = Trace of Precipitation, MM = Missing Value Source: NWS Daily Summary

Daily Weather History Graph

Daily Weather History Graph

Search for Another Location

Airport:

Trip Planner

Search our weather history database for the weather conditions in past years. The results will help you decide how hot, cold, wet, or windy it might be!

Date:

Astronomy

Jan. 23, 2013 Rise Set
Actual Time 7:58 AM EST 5:42 PM EST
Civil Twilight 7:28 AM EST 6:12 PM EST
Nautical Twilight 6:54 AM EST 6:46 PM EST
Astronomical Twilight 6:21 AM EST 7:19 PM EST
Moon 2:51 PM EST (1/23) 5:10 AM EST (1/23)
Length of Visible Light 10h 44m
Length of Day
9h 43m
Waxing Gibbous, 89% of the Moon is Illuminated
Jan 23
Waxing Gibbous
Jan 26
Full
Feb 3
Last Quarter
Feb 10
New
Feb 17
First Quarter

Hourly Weather History & Observations

Time (EST) Temp. Windchill Dew Point Humidity Pressure Visibility Wind Dir Wind Speed Gust Speed Precip Events Conditions
12:14 AM 7.0 °F -5.7 °F -1.8 °F 67% 30.22 in 5.0 mi West 8.1 mph - N/A Snow Light Snow
12:35 AM 7.0 °F -5.7 °F -1.7 °F 68% 30.22 in 7.0 mi West 8.1 mph - N/A Snow Light Snow
12:55 AM 7.0 °F -4.5 °F -1.1 °F 69% 30.22 in 10.0 mi West 6.9 mph - N/A Snow Light Snow
1:14 AM 6.3 °F -6.5 °F -1.5 °F 71% 30.21 in 7.0 mi West 8.1 mph - N/A Snow Light Snow
1:35 AM 5.4 °F -3.6 °F -1.3 °F 74% 30.21 in 3.0 mi West 4.6 mph - N/A Snow Light Snow
1:54 AM 5.2 °F - -0.9 °F 76% 30.21 in 2.0 mi Calm Calm - N/A Snow Light Snow
2:14 AM 4.6 °F -2.5 °F -0.8 °F 78% 30.22 in 1.5 mi West 3.5 mph - N/A Snow Light Snow
2:35 AM 3.6 °F - -1.5 °F 80% 30.21 in 0.8 mi Calm Calm - N/A Snow Snow
2:54 AM 2.3 °F - -2.0 °F 82% 30.21 in 2.5 mi Calm Calm - N/A Snow Light Snow
3:15 AM 1.8 °F - -2.4 °F 83% 30.22 in 1.5 mi Calm Calm - N/A Snow Light Snow
3:35 AM 0.3 °F - -3.6 °F 83% 30.22 in 2.0 mi Calm Calm - N/A Snow Light Snow
3:54 AM 2.1 °F - -1.8 °F 83% 30.22 in 2.5 mi Calm Calm - N/A Snow Light Snow
4:15 AM 3.7 °F - -0.2 °F 84% 30.21 in 2.5 mi Calm Calm - N/A Snow Light Snow
4:35 AM 4.3 °F - -0.0 °F 82% 30.20 in 1.2 mi Calm Calm - N/A Snow Light Snow
4:55 AM 4.3 °F - -0.2 °F 82% 30.21 in 1.2 mi Calm Calm - N/A Snow Light Snow
5:15 AM 4.3 °F - -0.0 °F 82% 30.20 in 1.2 mi Calm Calm - N/A Snow Light Snow
5:35 AM 4.5 °F - 0.1 °F 82% 30.20 in 2.0 mi Calm Calm - N/A Snow Light Snow
5:54 AM 4.6 °F - 0.3 °F 82% 30.20 in 3.0 mi Calm Calm - N/A Snow Light Snow
6:15 AM 4.6 °F - 0.5 °F 83% 30.20 in 2.5 mi Calm Calm - N/A Snow Light Snow
6:34 AM 4.6 °F - 0.5 °F 83% 30.20 in 3.0 mi Calm Calm - N/A Snow Light Snow
6:55 AM 4.8 °F - 0.7 °F 83% 30.20 in 4.0 mi Calm Calm - N/A Snow Light Snow
7:14 AM 5.2 °F - 1.0 °F 83% 30.20 in 7.0 mi Calm Calm - N/A Snow Light Snow
7:35 AM 5.4 °F -1.7 °F 1.0 °F 82% 30.20 in 10.0 mi South 3.5 mph - N/A Snow Light Snow
7:55 AM 5.7 °F -1.3 °F 1.6 °F 83% 30.20 in 4.0 mi South 3.5 mph - N/A Snow Light Snow
8:13 AM 6.1 °F - 1.8 °F 82% 30.19 in 3.0 mi Calm Calm - N/A Snow Light Snow
8:35 AM 6.4 °F -0.5 °F 2.5 °F 84% 30.19 in 3.0 mi South 3.5 mph - N/A Snow Light Snow
8:54 AM 7.5 °F -1.1 °F 3.4 °F 83% 30.18 in 5.0 mi SSW 4.6 mph - N/A Snow Light Snow
9:15 AM 9.0 °F -2.2 °F 2.8 °F 76% 30.17 in 7.0 mi SSW 6.9 mph - N/A Snow Light Snow
9:35 AM 9.9 °F -2.2 °F 2.8 °F 73% 30.18 in 10.0 mi SW 8.1 mph - N/A   Overcast
9:55 AM 10.8 °F -2.8 °F 2.7 °F 70% 30.18 in 10.0 mi SW 10.4 mph - N/A   Overcast
10:15 AM 11.3 °F -2.2 °F 2.3 °F 67% 30.18 in 10.0 mi WSW 10.4 mph - N/A   Overcast
10:35 AM 12.2 °F -1.0 °F 2.5 °F 65% 30.18 in 10.0 mi WSW 10.4 mph 16.1 mph N/A   Overcast
10:54 AM 12.7 °F 2.4 °F 2.5 °F 64% 30.18 in 10.0 mi WSW 6.9 mph - N/A   Mostly Cloudy
11:15 AM 13.5 °F 0.5 °F 2.1 °F 61% 30.18 in 10.0 mi WSW 10.4 mph - N/A   Mostly Cloudy
11:35 AM 13.6 °F 0.7 °F 2.3 °F 61% 30.17 in 10.0 mi West 10.4 mph 17.3 mph N/A   Mostly Cloudy
11:54 AM 14.4 °F 3.3 °F 2.7 °F 60% 30.16 in 10.0 mi WSW 8.1 mph - N/A   Mostly Cloudy
12:15 PM 14.9 °F 2.3 °F 2.8 °F 59% 30.15 in 10.0 mi WSW 10.4 mph - N/A   Mostly Cloudy
12:35 PM 14.9 °F 1.6 °F 2.8 °F 59% 30.14 in 10.0 mi WSW 11.5 mph 16.1 mph N/A   Overcast
12:55 PM 15.3 °F 4.4 °F 3.9 °F 61% 30.13 in 10.0 mi WSW 8.1 mph 17.3 mph N/A   Overcast
1:15 PM 15.3 °F 2.0 °F 3.7 °F 60% 30.12 in 7.0 mi SW 11.5 mph 16.1 mph N/A   Overcast
1:34 PM 15.1 °F 2.5 °F 3.4 °F 60% 30.10 in 10.0 mi WSW 10.4 mph 18.4 mph N/A   Overcast
1:55 PM 15.3 °F 0.8 °F 3.4 °F 59% 30.09 in 10.0 mi SW 13.8 mph - N/A   Overcast
2:15 PM 15.4 °F 3.0 °F 3.7 °F 60% 30.08 in 10.0 mi SW 10.4 mph - N/A   Overcast
2:34 PM 15.4 °F 3.0 °F 3.6 °F 59% 30.08 in 10.0 mi SW 10.4 mph - N/A   Mostly Cloudy
2:55 PM 15.6 °F 4.0 °F 3.4 °F 59% 30.08 in 10.0 mi SW 9.2 mph - N/A   Mostly Cloudy
3:15 PM 15.6 °F 2.5 °F 3.7 °F 59% 30.07 in 10.0 mi WSW 11.5 mph - N/A   Mostly Cloudy
3:34 PM 15.4 °F 5.6 °F 5.2 °F 64% 30.07 in 7.0 mi WSW 6.9 mph 10.4 mph N/A   Overcast
3:55 PM 15.4 °F 4.6 °F 5.7 °F 65% 30.06 in 5.0 mi WSW 8.1 mph - N/A   Haze
4:14 PM 15.4 °F 4.6 °F 6.4 °F 68% 30.05 in 5.0 mi SW 8.1 mph - N/A   Haze
4:35 PM 15.3 °F 2.8 °F 7.2 °F 70% 30.04 in 4.0 mi SW 10.4 mph - N/A   Haze
4:55 PM 15.1 °F 2.5 °F 7.5 °F 72% 30.04 in 5.0 mi SW 10.4 mph - N/A   Haze
5:14 PM 14.4 °F 3.3 °F 7.5 °F 74% 30.04 in 7.0 mi SW 8.1 mph - N/A   Mostly Cloudy
5:35 PM 13.6 °F 2.5 °F 7.2 °F 75% 30.03 in 10.0 mi SW 8.1 mph - N/A   Scattered Clouds
5:55 PM 13.5 °F 4.4 °F 7.0 °F 75% 30.04 in 10.0 mi WSW 5.8 mph - N/A   Scattered Clouds
6:14 PM 12.7 °F - 6.4 °F 76% 30.04 in 10.0 mi Calm Calm - N/A   Mostly Cloudy
6:35 PM 13.3 °F 5.6 °F 7.2 °F 77% 30.04 in 10.0 mi SW 4.6 mph - N/A   Overcast
6:54 PM 13.5 °F 7.5 °F 7.9 °F 78% 30.04 in 10.0 mi SW 3.5 mph - N/A   Overcast
7:15 PM 13.6 °F 6.0 °F 8.4 °F 80% 30.03 in 5.0 mi SSW 4.6 mph - N/A Snow Light Snow
7:34 PM 13.6 °F 6.0 °F 9.1 °F 82% 30.02 in 5.0 mi SSW 4.6 mph - N/A Snow Light Snow
7:55 PM 13.3 °F 7.3 °F 9.3 °F 84% 30.02 in 7.0 mi South 3.5 mph - N/A Snow Light Snow
8:15 PM 12.9 °F 5.2 °F 9.3 °F 86% 30.01 in 5.0 mi South 4.6 mph - N/A Snow Light Snow
8:34 PM 13.3 °F 5.6 °F 9.9 °F 86% 30.01 in 7.0 mi South 4.6 mph - N/A Snow Light Snow
8:54 PM 13.8 °F 4.9 °F 10.8 °F 88% 30.00 in 3.0 mi South 5.8 mph - N/A Snow Light Snow
9:15 PM 14.4 °F 6.9 °F 11.1 °F 87% 30.00 in 1.2 mi SSW 4.6 mph - N/A Snow Light Snow
9:35 PM 14.5 °F 7.1 °F 11.3 °F 87% 30.00 in 1.0 mi SW 4.6 mph - N/A Snow Snow
9:55 PM 15.1 °F 7.7 °F 11.7 °F 86% 30.01 in 1.0 mi SW 4.6 mph - N/A Snow Snow
10:15 PM 15.3 °F - 11.8 °F 86% 30.00 in 0.8 mi Calm Calm - N/A Snow Snow
10:35 PM 15.4 °F - 12.6 °F 88% 30.01 in 0.5 mi Calm Calm - N/A Snow Snow
10:54 PM 15.6 °F 8.3 °F 12.7 °F 88% 30.01 in 0.8 mi NW 4.6 mph - N/A Snow Snow
11:13 PM 16.0 °F 4.4 °F 13.1 °F 88% 30.03 in 1.8 mi NNW 9.2 mph - N/A Snow Light Snow
11:35 PM 14.7 °F -1.1 °F 10.8 °F 84% 30.05 in 3.0 mi NNW 16.1 mph 20.7 mph N/A Snow Light Snow
11:54 PM 13.5 °F -0.9 °F 8.6 °F 81% 30.06 in 10.0 mi NNW 12.7 mph 16.1 mph N/A   Mostly Cloudy